Вернуться в каталог

ONEWEB-0621

АктивенСвязьPO
NORAD 55162·PAYLOAD·🇬🇧 United Kingdom

Запущен Jan 10, 2023 с Cape Canaveral Space Force Station

Loading…

Ближайшие Пролёты (ближайшие 24 часа)

TLE

СвежийSource: CelesTrak SupGP

Эпоха: Sep 14, 2026, 18:13 UTC

1 55162C 23004Y   26257.75919398  .00002587  00000+0  73073-2 0  2571
2 55162  87.8982   3.2621 0001928 107.8423 353.4050 13.11418999    19

Отслеживайте ONEWEB-0621 в реальном времени с AllMySat

Download on the App Store